This is the latest recevied weather packets stored in our database for station/object WW5JC. If no packets are shown the sender has not sent any weather packets the latest 10 day(s).
| Time | Temp. | Humidity | Pressure | Rain* | Wind** | Luminosity | Snow |
|---|---|---|---|---|---|---|---|
| 1777945806 | 21.67° C | 74% | 1008.7 hPa | 0 mm | - | 0 W/m² | - |
| 1777945503 | 21.67° C | 73% | 1008.6 hPa | 0 mm | - | 0 W/m² | - |
| 1777945200 | 21.67° C | 73% | 1008.6 hPa | 0 mm | - | 0 W/m² | - |
| 1777944897 | 21.67° C | 73% | 1008.8 hPa | 0 mm | - | 0 W/m² | - |
| 1777944594 | 21.67° C | 71% | 1008.6 hPa | 0 mm | - | 0 W/m² | - |
| 1777944292 | 21.67° C | 71% | 1008.8 hPa | 0 mm | - | 0 W/m² | - |
| 1777943989 | 21.67° C | 71% | 1008.6 hPa | 0 mm | - | 0 W/m² | - |
| 1777943684 | 22.22° C | 71% | 1008.2 hPa | 0 mm | - | 1 W/m² | - |
| 1777943382 | 22.22° C | 71% | 1008.6 hPa | 0 mm | - | 1 W/m² | - |
| 1777943077 | 22.22° C | 70% | 1008.3 hPa | 0 mm | - | 2 W/m² | - |
| 1777942774 | 22.78° C | 69% | 1008.6 hPa | 0 mm | - | 4 W/m² | - |
| 1777942471 | 22.78° C | 68% | 1008.3 hPa | 0 mm | - | 8 W/m² | - |
| 1777942168 | 22.78° C | 68% | 1008.5 hPa | 0 mm | - | 10 W/m² | - |
| 1777941865 | 22.78° C | 67% | 1008.1 hPa | 0 mm | - | 14 W/m² | - |
| 1777941561 | 23.33° C | 66% | 1007.9 hPa | 0 mm | - | 18 W/m² | - |
| 1777941259 | 23.33° C | 66% | 1008.3 hPa | 0 mm | - | 23 W/m² | - |
| 1777940955 | 23.33° C | 65% | 1008.2 hPa | 0 mm | - | 25 W/m² | - |
| 1777940651 | 23.89° C | 64% | 1008.2 hPa | 0 mm | - | 28 W/m² | - |
| 1777940350 | 23.89° C | 64% | 1008.6 hPa | 0 mm | - | 33 W/m² | - |
| 1777940047 | 23.89° C | 63% | 1008.3 hPa | 0 mm | - | 39 W/m² | - |
| 1777939744 | 24.44° C | 62% | 1008.8 hPa | 0 mm | - | 46 W/m² | - |
| 1777939442 | 24.44° C | 61% | 1008.5 hPa | 0 mm | - | 61 W/m² | - |
| 1777939138 | 24.44° C | 61% | 1008.6 hPa | 0 mm | - | 72 W/m² | - |
| 1777938835 | 24.44° C | 60% | 1008.9 hPa | 0 mm | - | 71 W/m² | - |
| 1777938531 | 25° C | 60% | 1008.9 hPa | 0 mm | - | 68 W/m² | - |
* Rain latest hour (hover to see other rain measurements)
** Current wind speed in m/s (hover to see current wind gust speed)